Regional Weather Roundup
Issued by NWS Jackson, KY

Home | Current Version | Previous Version | Text Only | Print | Product List | Glossary Off
Versions: 1 2 3 4 5 6 7 8 9 10 11 12 13 14 15 16 17 18 19 20 21 22 23 24 25 26 27 28 29 30 31 32 33 34 35 36 37 38 39 40 41 42 43 44 45 46 47 48 49 50

000
ASUS43 KJKL 221511
RWRJKL

EAST KENTUCKY HOURLY WEATHER ROUNDUP
NATIONAL WEATHER SERVICE JACKSON KY
1100 AM EDT TUE JUL 22 2014

NOTE: "FAIR" INDICATES FEW OR NO CLOUDS BELOW 12,000 FEET WITH
NO SIGNIFICANT WEATHER AND/OR OBSTRUCTIONS TO VISIBILITY.

* THESE REPORTS ARE NOT UNDER NWS QUALITY CONTROL AND MAY NOT
  REPORT WEATHER SUCH AS PRECIPITATION AND FOG.

KYZ079-080-083-085-087-088-110-112-115-119-120-221600
...EASTERN KENTUCKY...

CITY           SKY/WX    TMP DP  RH WIND       PRES   REMARKS
JACKSON        SUNNY     80  68  66 CALM      30.17F
LONDON         SUNNY     81  68  64 SW7       30.17F
SOMERSET*      SUNNY     81  72  74 SW3       30.15F
MONTICELLO*    SUNNY     83  72  69 SW3       30.16F
WILLIAMSBURG*  MOSUNNY   81  72  74 SW5       30.16F
MIDDLESBORO*   SUNNY     80  68  67 CALM      30.17F
HARLAN APT*    MOSUNNY   79  66  65 MISG      30.18F
HAZARD APT*    SUNNY     81  68  65 S5        30.17F
BLACK MTN*       N/A     72  64  78 CALM        N/A
PIKEVILLE APT* SUNNY     77  68  73 SE3       30.18F
BIG SANDY*     SUNNY     81  69  66 S5        30.17S
MOREHEAD APT*    N/A     81  70  69 MISG      30.16F
$$

KYZ035-036-041-042-044-050-067-078-099-221600
...CENTRAL KENTUCKY...

CITY           SKY/WX    TMP DP  RH WIND       PRES   REMARKS
MT STERLING*   SUNNY     81  72  74 W5        30.15F
FLEMING/MASON* SUNNY     82  72  69 SW5       30.15S
DANVILLE*      SUNNY     82  72  69 S6        30.14F
RICHMOND*      SUNNY     81  70  69 SW6       30.14S
LEXINGTON      SUNNY     83  72  69 SW5       30.13F
FRANKFORT      SUNNY     84  71  65 CALM      30.11F
$$

KYZ091>093-OHZ055-061-077-WVZ005-015-034-035-042-221600
...SOUTHERN OHIO/WEST VIRGINIA...

CITY           SKY/WX    TMP DP  RH WIND       PRES   REMARKS
COVINGTON      MOSUNNY   84  70  62 SW6       30.12F
COLUMBUS       MOSUNNY   84  69  60 CALM      30.12F
DAYTON         MOSUNNY   82  71  69 S6        30.14F
WILMINGTON     SUNNY     83  71  67 CALM      30.13F
HUNTINGTON     SUNNY     81  70  69 S6        30.13F
CHARLESTON     MOSUNNY   83  69  62 S3        30.15F
PINEVILLE*     SUNNY     82  71  68 MISG      30.25F
BECKLEY        MOSUNNY   76  65  68 E6        30.25F
BLUEFIELD      MOSUNNY   77  63  61 VRB3      30.27F
$$

VAZ002-007-008-TNZ017-027-036-066-071-221600
...SOUTHWEST VIRGINIA/EAST TENNESSEE...

CITY           SKY/WX    TMP DP  RH WIND       PRES   REMARKS
WISE*          SUNNY     77  63  61 S5        30.25F
JONESVILLE*    SUNNY     81  66  61 CALM      30.20F
ABINGDON*      MOSUNNY   80  67  63 S6        30.23S
BRISTOL        MOSUNNY   79  66  64 CALM      30.20S
KNOXVILLE      PTSUNNY   79  69  71 NE3       30.16S
OAK RIDGE      PTSUNNY   81  69  67 VRB3      30.17S
CROSSVILLE     SUNNY     78  65  63 S6        30.20F
NASHVILLE      PTSUNNY   84  72  67 S9        30.12F
$$

...KEY TO REMARKS...
VSB - VISIBILITY IN MILES
WCI - WIND CHILL INDEX
HX  - HEAT INDEX

$$



USA.gov is the U.S. government's official web portal to all federal, state and local government web resources and services.